SCP
0 0 0 0 0 0 0 0 0 0 0 0 0 0 0 0 0 0 0 0 0 0 0 0 0 0 0 0 0 0 0 0 0 0 0 0 0 0 0 0 0 0 0 0 0 0 0 0 0
0 0 0 0 0 0 0 0 0 0 0 0 0 0 0 0 0 0 0 0 0 0 0 0 0 0 0 0 0 0 0 0 0 0 0 0 0 0 0 0 0 0 0 0 0 0 0 0 0
0 0 0 0 0 0 0 0 0 0 0 0 0 0 0 0 0 0 0 0 0 0 0 0 0 0 0 0 0 0 0 0 0 0 0 0 0 0 0 0 0 0 0 0 0 0 0 0 0
0 0 0 0 0 0 0 0 0 0 0 0 0 0 0 0 0 0 0 0 0 0 0 1 1 0 0 0 0 0 0 0 0 0 0 0 0 0 0 0 0 0 0 0 0 0 0 0 0
0 0 0 0 0 0 0 0 0 0 0 0 0 0 0 0 0 0 0 0 0 0 0 1 1 1 0 0 0 0 0 0 0 0 0 0 0 0 0 0 0 0 0 0 0 0 0 0 0
0 0 0 0 0 0 0 0 0 0 0 0 0 0 0 0 0 0 0 0 0 0 0 1 1 1 0 0 0 0 0 0 0 0 0 0 0 0 0 0 0 0 0 0 0 0 0 0 0
0 0 0 0 0 0 0 0 0 0 0 0 0 0 0 0 0 0 0 0 0 0 0 1 1 1 0 0 0 0 0 0 0 0 0 0 0 0 0 0 0 0 0 0 0 0 0 0 0
0 0 0 0 0 0 0 0 0 0 0 0 0 0 0 0 0 0 0 0 0 0 0 0 0 0 0 0 0 0 0 0 0 0 0 0 0 0 0 0 0 0 0 0 0 0 0 0 0
0 0 0 0 0 0 0 0 0 0 0 0 0 0 0 0 0 0 0 0 0 0 0 0 0 0 0 0 0 0 0 0 0 0 0 0 0 0 0 0 0 0 0 0 0 0 0 0 0
0 0 0 0 0 0 0 0 0 0 0 0 0 0 0 0 0 0 0 0 0 0 0 0 0 0 0 0 0 0 0 0 0 0 0 0 0 0 0 0 0 0 0 0 0 0 0 0 0
0 0 0 0 0 0 0 0 0 0 0 0 0 0 0 0 0 0 0 0 0 0 0 0 0 0 0 0 0 0 0 0 0 0 0 0 0 0 0 0 0 0 0 0 0 0 0 0 0
0 0 0 0 0 0 0 0 0 0 0 0 0 0 0 0 0 0 0 0 0 0 0 0 0 0 0 0 0 0 0 0 0 0 0 0 0 0 0 0 0 0 0 0 0 0 0 0 0
0 0 0 0 0 0 0 0 0 0 0 0 0 0 0 0 0 0 0 0 0 0 0 0 0 0 0 0 0 0 0 0 0 0 0 0 0 0 0 0 0 0 0 0 0 0 0 0 0
0 0 0 0 0 0 0 0 0 0 0 0 0 0 0 0 0 0 0 0 0 0 0 0 0 0 0 0 0 0 0 0 0 0 0 0 0 0 0 0 0 0 0 0 0 0 0 0 0
0 0 0 0 0 0 0 0 0 0 0 0 0 0 0 0 0 0 0 0 0 0 0 0 0 0 0 0 0 0 0 0 0 0 0 0 0 0 0 0 0 0 0 0 0 0 0 0 0
0 0 0 0 0 0 0 0 0 0 0 0 0 0 0 0 0 0 0 0 0 0 0 0 0 0 0 0 0 0 0 0 0 0 0 0 0 0 0 0 0 0 0 0 0 0 0 0 0
0 0 0 0 0 0 0 0 0 0 0 0 0 0 0 0 0 0 0 0 0 0 0 0 0 0 0 0 0 0 0 0 0 0 0 0 0 0 0 0 0 0 0 0 0 0 0 0 0
0 0 0 0 0 0 0 0 0 0 0 0 0 0 0 0 0 0 0 0 0 0 0 0 0 0 0 0 0 0 0 0 0 0 0 0 0 0 0 0 0 0 0 0 0 0 0 0 0
0 0 0 0 0 0 0 0 0 0 0 0 0 0 0 0 0 0 0 0 0 0 0 0 0 0 0 0 0 0 0 0 0 0 0 0 0 0 0 0 0 0 0 0 0 0 0 0 0
0 0 0 0 0 0 0 0 0 0 0 0 0 0 0 0 0 0 0 0 0 0 0 0 0 0 0 0 0 0 0 0 0 0 0 0 0 0 0 0 0 0 0 0 0 0 0 0 0
0 0 0 0 0 0 0 0 0 0 0 0 0 0 0 0 0 0 0 0 0 0 0 0 0 0 0 0 0 0 0 0 0 0 0 0 0 0 0 0 0 0 0 0 0 0 0 0 0
0 0 0 0 0 0 0 0 0 0 0 0 0 0 0 0 0 0 0 0 0 0 0 0 0 0 0 0 0 0 0 0 0 0 0 0 0 0 0 0 0 0 0 0 0 0 0 0 0
0 0 0 0 0 0 0 0 0 0 0 0 0 0 0 0 0 0 0 0 0 0 0 0 0 0 0 0 0 0 0 0 0 0 0 0 0 0 0 0 0 0 0 0 0 0 0 0 0
0 0 0 0 0 0 0 0 0 0 0 0 0 0 0 0 0 0 0 0 0 0 0 0 0 0 0 0 0 0 0 0 0 0 0 0 0 0 0 0 0 0 0 0 0 0 0 0 0
0 0 0 0 0 0 0 0 0 0 0 0 0 0 0 0 0 0 0 0 0 0 0 0 0 0 0 0 0 0 0 0 0 0 0 0 0 0 0 0 0 0 0 0 0 0 0 0 0
0 0 0 0 0 0 0 0 0 0 0 0 0 0 0 0 0 0 0 0 0 0 0 0 0 0 0 0 0 0 0 0 0 0 0 0 0 0 0 0 0 0 0 0 0 0 0 0 0
0 0 0 0 0 0 0 0 0 0 0 0 0 0 0 0 0 0 0 0 0 0 0 0 0 0 0 0 0 0 0 0 0 0 0 0 0 0 0 0 0 0 0 0 0 0 0 0 0
0 0 0 0 0 0 0 0 0 0 0 0 0 0 0 0 0 0 0 0 0 0 0 0 0 0 0 0 0 0 0 0 0 0 0 0 0 0 0 0 0 0 0 0 0 0 0 0 0
0 0 0 0 0 0 0 0 0 0 0 0 0 0 0 0 0 0 0 0 0 0 0 0 0 0 0 0 0 0 0 0 0 0 0 0 0 0 0 0 0 0 0 0 0 0 0 0 0
0 0 0 0 0 0 0 0 0 0 0 0 0 0 0 0 0 0 0 0 0 0 0 0 0 0 0 0 0 0 0 0 0 0 0 0 0 0 0 0 0 0 0 0 0 0 0 0 0
Wind_Speed
9 11 8 2 3 4 7 1 2 4 3 7 5 4 5 4 5 5 5 8 12 16 17 19 20 19 17 16 14 13 12 11 11 11 11 10 10 10 11 11 11 11 11 12 12 12 13 13 13
9 8 4 3 4 6 4 4 3 5 6 4 1 2 4 3 8 9 6 8 13 15 16 16 20 19 18 16 15 14 13 12 11 11 10 10 10 10 10 10 10 10 10 11 11 11 11 11 12
11 7 4 3 5 6 2 6 5 6 4 0 2 2 2 3 7 6 7 9 11 13 15 16 22 20 18 17 16 14 13 12 11 11 10 10 9 9 9 9 9 9 9 9 10 10 10 10 10
5 3 4 5 8 5 3 4 6 2 2 2 3 4 2 6 5 7 8 9 11 12 13 16 22 20 18 17 16 15 14 12 12 11 10 10 9 9 8 8 8 8 8 8 8 8 9 9 9
3 4 5 6 8 0 3 5 4 3 2 2 1 5 3 5 10 10 8 8 10 11 12 17 21 20 19 17 16 15 14 12 12 11 10 9 9 9 8 7 7 6 7 7 7 7 7 7 7
3 4 5 6 5 2 2 2 0 4 4 1 2 4 3 6 8 8 8 6 8 10 12 16 20 19 18 17 17 15 14 13 12 11 10 9 9 9 8 7 6 5 5 5 5 5 5 5 5
4 4 6 7 3 0 1 4 3 4 5 4 2 3 4 6 6 6 7 6 7 10 11 14 13 14 17 17 16 16 15 13 12 11 10 9 9 8 8 7 6 5 4 4 3 3 3 3 3
3 4 6 6 4 2 3 3 1 3 6 6 4 3 4 4 4 5 5 4 6 8 9 13 11 11 10 10 14 15 14 13 12 12 10 9 9 8 8 7 7 5 4 3 2 2 1 0 1
3 3 5 5 4 3 3 1 2 1 3 6 5 3 7 7 5 5 5 4 4 6 7 12 12 11 10 9 11 12 13 12 11 9 11 9 5 5 6 8 9 7 5 4 4 4 3 4 4
3 3 7 5 5 6 7 5 5 4 6 6 4 2 7 6 5 5 6 7 7 7 7 9 12 11 10 8 8 7 7 7 7 6 7 5 4 4 5 9 10 8 7 6 6 6 6 5 4
4 5 6 6 5 5 6 7 6 6 6 4 4 5 2 1 3 5 6 6 9 9 8 7 10 11 9 6 6 5 4 5 6 6 7 5 4 3 4 3 4 5 6 4 6 5 4 5 4
4 7 7 5 3 2 5 6 7 6 5 2 2 3 3 3 3 4 4 5 6 9 9 7 8 10 10 7 5 5 4 4 4 5 6 5 3 3 3 3 4 4 3 4 3 3 5 5 5
6 7 6 3 3 5 6 8 7 8 4 1 2 1 2 3 3 2 2 3 5 8 9 8 8 9 9 7 5 5 5 5 5 4 5 5 4 4 3 3 3 4 3 4 4 4 5 5 5
6 8 8 8 7 5 6 8 6 5 1 1 2 1 1 2 3 2 1 1 3 7 8 8 7 8 8 6 5 5 5 5 5 5 5 6 4 4 4 4 3 3 3 3 4 4 5 4 4
4 8 10 10 6 3 2 8 9 5 2 3 3 3 3 3 2 1 1 0 3 6 8 7 7 7 8 7 6 4 4 4 4 4 5 6 5 4 4 3 3 4 4 4 3 4 3 3 4
8 7 6 4 5 5 3 6 3 6 3 3 2 4 5 4 4 3 3 2 3 5 7 7 5 6 7 6 5 4 4 4 4 3 4 5 5 5 4 4 4 4 3 3 3 3 3 4 4
8 8 9 4 6 5 5 6 3 5 4 4 3 5 6 5 6 5 5 4 5 6 7 7 6 5 6 5 4 3 3 3 2 2 2 3 4 4 4 3 3 4 3 3 4 3 3 4 5
6 6 6 2 5 3 6 8 4 6 5 4 5 6 6 6 6 5 6 6 6 7 8 7 6 4 5 4 4 3 2 2 2 1 2 3 3 3 3 3 4 3 3 3 3 4 4 4 5
7 8 9 7 2 1 6 9 6 5 5 5 6 7 7 7 6 6 6 7 7 7 7 7 6 4 4 3 3 3 2 2 1 1 2 2 3 3 3 3 3 3 4 4 5 4 5 4 3
5 8 10 8 2 1 6 9 6 6 7 6 7 8 9 8 7 6 6 6 6 6 7 7 6 5 5 4 3 2 2 1 1 1 2 3 3 3 3 4 3 4 4 5 5 5 4 4 3
8 9 9 7 3 5 5 8 7 6 6 5 6 9 9 9 8 7 7 7 7 6 6 6 6 6 6 5 4 3 2 1 0 1 1 3 3 3 3 4 4 4 4 4 5 5 6 5 4
8 5 4 5 4 5 5 4 5 9 7 7 7 8 9 8 8 8 8 7 7 6 6 7 7 6 5 5 4 3 2 1 1 1 1 2 3 3 3 3 4 4 4 5 5 5 5 5 5
3 2 2 4 5 7 6 6 6 11 10 10 9 9 9 9 9 8 8 8 7 5 5 6 6 6 5 4 4 2 1 1 1 1 1 1 1 2 2 3 3 4 4 5 5 5 5 5 6
2 1 4 4 3 6 9 9 6 10 14 14 11 10 10 9 9 8 7 8 6 5 5 5 6 5 4 4 3 3 3 2 2 2 2 2 1 1 2 2 3 4 4 5 5 5 6 6 7
3 3 3 4 4 8 3 4 5 6 11 14 14 13 11 10 9 9 8 7 7 6 5 5 6 5 4 4 3 3 2 2 1 1 2 2 2 2 2 2 2 3 4 5 5 5 6 7 7
8 6 5 3 3 1 1 5 1 5 4 9 13 13 12 10 9 9 8 8 7 7 6 5 6 5 4 3 3 2 2 1 1 1 2 2 2 2 3 3 4 5 5 5 5 5 6 6 7
6 8 4 4 6 4 5 4 3 3 3 4 10 13 12 11 10 9 8 8 7 6 5 6 5 4 4 3 2 2 2 1 1 2 2 2 3 3 4 4 5 6 6 6 6 5 7 7 7
4 3 4 4 4 5 6 7 7 7 7 6 8 11 11 10 10 9 8 8 7 6 5 5 5 4 3 3 2 1 1 1 2 2 3 4 4 4 5 6 6 6 7 7 6 6 7 7 7
6 4 4 4 4 3 4 2 3 8 10 10 9 9 11 10 10 9 8 7 7 7 6 5 4 3 2 2 1 1 1 2 3 3 4 4 4 5 6 6 6 7 7 7 7 7 8 8 8
7 8 7 4 5 4 3 3 1 5 6 8 8 8 9 10 9 9 8 8 7 6 5 4 3 3 2 1 1 1 2 3 3 4 4 5 5 6 6 7 7 8 8 8 8 8 8 8 9
Wind_Direction
262 250 240 244 245 238 249 144 75 72 51 53 42 349 338 28 41 92 150 147 130 141 151 162 160 159 157 154 150 146 140 136 130 121 115 110 103 94 88 83 78 74 70 67 66 67 65 64 63
273 244 236 239 248 251 225 131 115 67 60 54 74 259 278 89 95 116 139 132 133 144 150 163 162 161 160 157 153 151 147 144 138 129 123 117 110 101 94 87 82 77 72 69 68 67 66 65 63
268 253 235 224 244 264 31 84 77 75 81 67 260 227 302 56 88 102 129 135 137 145 151 163 163 164 163 161 157 156 153 150 145 138 133 126 118 110 101 93 86 80 75 72 69 67 67 65 64
247 228 245 246 250 252 36 67 66 18 133 172 292 284 136 73 73 106 129 143 143 146 151 159 164 166 166 164 161 160 158 155 151 146 141 135 127 119 108 101 95 88 81 75 71 68 66 64 62
244 240 234 246 256 298 67 50 52 300 277 179 204 294 43 76 98 116 135 150 148 150 150 157 167 168 168 167 165 164 162 160 157 153 149 144 136 129 121 115 106 98 91 81 73 69 66 63 60
243 248 247 243 238 127 107 88 108 270 279 251 186 270 79 109 105 117 131 155 151 148 147 155 169 170 171 171 169 167 167 166 164 160 157 154 147 143 138 132 124 115 104 94 81 73 66 61 56
271 267 275 285 303 40 85 61 358 322 315 320 11 320 96 78 91 118 133 158 145 145 144 151 167 171 173 174 173 172 171 171 170 168 166 162 158 157 155 150 145 141 130 116 102 86 72 61 53
304 292 275 280 295 328 59 69 347 319 314 344 5 306 83 121 117 113 123 142 138 144 148 151 166 169 171 174 175 174 174 175 176 174 169 166 166 169 169 165 168 166 162 160 160 158 158 266 275
286 287 284 298 333 343 32 18 308 319 279 285 274 278 118 135 131 130 134 146 148 153 157 155 165 169 170 172 176 174 174 177 177 174 167 163 168 174 177 181 177 183 190 199 210 221 233 245 245
228 267 281 320 350 347 349 343 327 310 288 278 282 77 118 139 156 170 180 178 173 173 174 163 164 167 170 173 168 172 173 172 174 169 166 170 179 179 172 172 177 191 206 221 230 234 243 247 236
247 257 288 317 357 5 332 311 299 282 275 297 341 7 53 162 204 206 210 197 178 172 175 172 164 162 164 164 161 167 166 166 179 178 171 174 176 162 146 151 172 193 207 222 232 228 225 227 222
267 286 293 310 15 348 293 294 297 283 280 324 14 7 328 288 254 228 226 216 167 161 169 174 161 157 161 162 160 160 160 165 171 175 172 168 169 167 165 174 179 189 194 207 211 209 228 228 226
276 273 285 297 273 251 261 266 269 268 272 345 32 317 280 296 306 283 235 205 155 154 159 170 162 156 157 158 159 161 162 166 169 168 174 172 169 176 180 188 194 200 197 196 207 222 240 242 238
315 322 303 279 258 249 257 264 248 246 189 186 202 203 34 12 350 337 340 187 156 149 154 162 164 156 154 158 161 164 164 164 168 169 178 182 183 184 188 196 204 210 212 211 209 222 236 241 237
299 283 276 251 222 188 252 268 227 201 178 218 196 137 103 70 38 20 16 133 147 138 144 151 160 157 155 161 165 163 161 160 166 168 180 187 193 193 193 202 211 214 217 223 227 240 248 253 253
253 255 259 186 165 142 199 276 136 137 180 214 151 110 101 81 61 51 54 69 96 112 124 131 141 154 154 156 155 149 159 160 161 166 179 195 201 200 200 205 217 222 223 222 225 233 250 256 254
241 244 252 171 175 168 217 268 167 158 189 199 156 118 106 87 67 59 66 78 94 109 114 121 131 150 145 142 137 139 142 143 145 159 179 203 211 210 209 214 223 228 232 230 230 231 233 252 260
288 294 304 288 164 200 247 265 231 183 195 190 149 121 106 92 78 71 73 76 85 100 109 116 119 129 128 127 126 122 114 111 114 148 196 214 220 222 222 223 232 239 245 244 237 240 241 244 253
306 311 303 298 124 208 259 265 242 180 180 184 151 128 116 108 101 90 86 86 86 91 103 113 121 122 113 114 123 126 130 127 137 202 232 233 233 235 230 230 235 236 241 243 242 245 253 257 257
294 283 279 280 149 213 271 269 247 183 183 177 152 136 128 122 113 107 99 92 92 95 101 108 113 113 107 106 107 108 114 132 161 192 222 238 243 241 234 231 235 238 245 254 253 249 253 258 241
254 254 267 293 322 240 257 271 220 171 163 150 142 133 132 133 129 118 105 96 87 84 91 100 101 101 100 105 100 91 87 66 165 216 227 234 238 240 235 237 239 242 239 246 249 243 242 252 249
258 268 273 296 300 277 206 271 194 166 165 166 161 143 137 129 124 119 111 101 94 89 89 95 98 99 103 111 115 133 145 166 200 194 209 230 227 226 227 236 243 247 245 249 250 244 238 240 250
251 36 317 279 270 279 256 250 237 161 180 182 175 154 141 133 128 122 117 114 109 105 102 103 103 103 105 105 111 109 93 85 47 27 347 309 286 243 233 239 250 256 254 254 256 258 250 239 240
111 222 252 253 255 259 231 213 245 180 189 180 173 156 145 137 132 127 123 119 116 113 110 112 110 108 104 99 100 91 76 41 18 354 343 320 303 283 263 248 251 259 260 259 257 255 254 250 249
181 213 238 214 214 242 219 198 255 177 173 173 168 157 148 143 142 143 143 137 135 134 131 124 117 114 110 102 93 92 83 51 19 354 350 336 324 314 300 298 278 272 265 263 260 258 256 254 252
194 217 237 261 246 187 180 226 238 73 91 155 154 150 149 152 153 154 152 145 143 143 140 127 119 114 104 97 87 79 73 53 13 352 327 309 296 293 306 311 294 284 279 275 268 262 257 257 253
197 213 253 305 301 285 244 192 110 93 86 123 145 149 156 158 157 156 153 149 147 146 137 126 122 114 103 94 80 64 50 29 350 326 309 296 292 293 298 292 285 281 278 274 271 264 262 260 256
279 263 179 206 244 253 254 219 191 175 180 174 162 161 161 159 158 157 155 152 147 139 126 120 117 115 109 93 82 56 9 4 337 315 301 294 293 294 293 288 283 281 279 276 274 271 267 267 265
190 231 225 227 254 262 284 314 44 160 173 178 179 168 165 164 162 159 156 148 138 130 129 126 122 119 109 93 68 26 344 331 314 298 292 295 295 297 294 291 290 288 285 283 280 278 279 277 277
195 205 206 217 235 223 261 283 64 106 140 161 169 166 162 161 158 155 149 142 138 139 141 139 135 126 115 94 35 336 316 309 303 299 300 303 300 297 294 292 289 286 286 284 283 283 284 282 283